Back to catalog

THORAD AGENA D DEB

AliveLEO
NORAD 4748·DEBRIS·🇺🇸 United States

Launched Apr 8, 1970 from Vandenberg Space Force Base

Loading…

Next Passes (next 24 hours)

TLE

FreshSource: Space-Track

Epoch: Sep 14, 2026, 08:16 UTC

1 04748U 70025CW  26257.34486174  .00000230  00000-0  34668-3 0  9991
2 04748 100.1295  78.8160 0005253 255.7295 104.3262 13.64582826795119

Track THORAD AGENA D DEB in real time with AllMySat

Download on the App Store